Printer-friendly version

IAU Minor Planet Center

Minor Planet Center

MPEC 2006-E10 : 2006 EB

The following Minor Planet Electronic Circular may be linked-to from your own Web pages, but must not otherwise be redistributed electronically.


Read MPEC 2006-E09 Read MPEC 2006-E11


M.P.E.C. 2006-E10                                Issued 2006 Mar. 3, 22:00 UT

     The Minor Planet Electronic Circulars contain information on unusual
         minor planets and routine data on comets.  They are published
   on behalf of Commission 20 of the International Astronomical Union by the
          Minor Planet Center, Smithsonian Astrophysical Observatory,
                          Cambridge, MA 02138, U.S.A.

                  Supported in part by the Brinson Foundation
                  Supported in part by the TABASGO Foundation
             Prepared using the Tamkin Foundation Computer Network

                              MPC@CFA.HARVARD.EDU
          URL http://cfa-www.harvard.edu/iau/mpc.html  ISSN 1523-6714

                                    2006 EB

Observations:
     K06E00B* C2006 03 03.19662 07 43 21.18 +18 07 56.5          20.7 V EE010G96
     K06E00B  C2006 03 03.20795 07 43 27.30 +18 07 46.7          20.8 V EE010G96
     K06E00B  C2006 03 03.21937 07 43 33.42 +18 07 36.8          20.7 V EE010G96
     K06E00B  C2006 03 03.23078 07 43 39.54 +18 07 26.7          20.3 V EE010G96
     K06E00B  C2006 03 03.26889 07 43 59.98 +18 06 53.4          20.3 V EE010G96
     K06E00B  C2006 03 03.27831 07 44 05.04 +18 06 45.0          20.4 V EE010G96
     K06E00B  C2006 03 03.28763 07 44 09.96 +18 06 36.9          21.4 V EE010G96
     K06E00B  C2006 03 03.29697 07 44 14.96 +18 06 28.8          20.4 V EE010G96
     K06E00B IC2006 03 03.83000 07 48 59.43 +17 58 48.0                 EE010J95
     K06E00B  C2006 03 03.84207 07 49 05.45 +17 58 38.4                 EE010J95
     K06E00B  C2006 03 03.85260 07 49 10.62 +17 58 29.9          20.3 R EE010J95

Observer details:
G96 Mt. Lemmon Survey.  Observer R. A. Kowalski.  Measurers E. C. Beshore,
    E. J. Christensen, G. J. Garradd, A. R. Gibbs, A. D. Grauer, R. E. Hill,
    R. A. Kowalski, S. M. Larson, R. H. McNaught.  1.5-m reflector + CCD.
J95 Great Shefford.  Observer P. Birtwhistle.  0.40-m f/6.0 Schmidt-Cassegrain
    + CCD.

Orbital elements:
2006 EB                                                  Earth MOID = 0.0021 AU
Epoch 2006 Mar. 6.0 TT = JDT 2453800.5                  MPC
M  30.10001              (2000.0)            P               Q
n   0.50018366     Peri.  100.94218     +0.75839565     -0.65167429
a   1.5717485      Node   299.72707     +0.59223980     +0.69699290
e   0.7103940      Incl.    0.82584     +0.27219123     +0.29920146
P   1.97           H   22.6           G   0.15           U   9
Residuals in seconds of arc
060303 G96  0.2-  0.1-    060303 G96  0.3+  0.0     060303 J95  0.1-  0.2-
060303 G96  0.2+  0.1-    060303 G96  0.6+  0.0     060303 J95  0.4+  0.0
060303 G96  0.0   0.1-    060303 G96  0.4-  0.2+    060303 J95  0.2-  0.2+
060303 G96  0.1-  0.3-    060303 G96  0.3-  0.5+

Ephemeris:
2006 EB                  a,e,i = 1.57, 0.71, 1                   q = 0.4552
Date    TT    R. A. (2000) Decl.     Delta      r     Elong.  Phase     V
2006 02 24    05 33.95   +18 36.6    0.0917   1.023   108.6    66.5    19.8
2006 02 26    06 27.65   +19 05.9    0.110    1.048   119.3    55.4    19.9
2006 02 28    07 04.92   +18 51.9    0.133    1.074   126.1    48.2    20.2
2006 03 02    07 31.19   +18 25.2    0.157    1.100   130.3    43.4    20.5
2006 03 04    07 50.40   +17 56.9    0.184    1.125   132.9    40.2    20.8
2006 03 06    08 04.99   +17 30.4    0.211    1.149   134.4    38.0    21.0
2006 03 08    08 16.46   +17 06.6    0.239    1.174   135.2    36.6    21.3
2006 03 10    08 25.78   +16 45.2    0.267    1.198   135.5    35.5    21.6
2006 03 12    08 33.54   +16 26.0    0.296    1.222   135.4    34.8    21.8
2006 03 14    08 40.16   +16 08.5    0.326    1.246   135.0    34.4    22.1
2006 03 16    08 45.94   +15 52.5    0.356    1.269   134.4    34.0    22.3

Timothy B. Spahr             (C) Copyright 2006 MPC           M.P.E.C. 2006-E10

Read MPEC 2006-E09 Read MPEC 2006-E11


Our Web policy. Index to the CBAT/MPC/ICQ pages.


Valid HTML 4.01!